Temperature
15 16 16 16 13 11 13 13 13 14 13 13 14 14 13 13 14 14 14 14 14 14 14 14 14 14 14 14 14 14 14 14 14 14 14 14 14 14 14 14 14 14 14 14 14 14 14 14 14
15 16 16 15 12 12 12 13 13 13 14 13 13 13 13 13 13 13 14 14 14 14 14 14 14 14 14 14 14 14 14 14 14 14 14 14 14 14 14 14 14 14 14 14 14 14 14 14 14
15 16 15 11 11 12 13 13 12 13 13 13 13 13 13 12 13 13 13 13 13 14 14 13 13 14 14 14 14 14 14 14 14 14 14 14 14 14 14 14 14 14 14 14 14 14 14 13 13
15 15 14 11 12 11 12 13 12 12 13 13 12 12 12 12 13 13 13 13 13 13 13 13 13 13 13 14 14 14 14 14 14 14 13 13 14 13 14 13 13 13 13 14 13 14 14 13 13
15 14 11 10 11 11 11 12 12 12 12 12 12 11 12 12 12 13 13 13 13 13 13 13 13 13 13 13 13 13 14 14 14 14 13 13 13 13 13 13 13 13 13 13 13 13 13 13 13
14 11 10 10 11 11 11 12 12 12 11 11 12 11 12 12 12 12 12 12 12 13 13 13 13 13 13 13 13 13 13 13 13 13 13 13 13 13 13 13 13 13 13 13 13 13 13 13 13
13 9 10 11 11 11 12 12 12 11 11 11 12 11 11 12 12 12 12 12 12 12 12 12 12 12 13 13 13 13 13 13 13 13 13 13 13 13 13 13 13 13 13 13 12 13 13 12 13
13 9 10 10 10 11 12 12 12 12 11 12 12 11 11 12 12 12 12 12 12 12 12 12 12 12 12 12 13 13 13 13 13 13 13 13 13 13 13 13 13 13 12 12 12 12 12 12 12
12 9 9 10 10 11 11 11 11 11 11 11 11 11 12 12 11 11 11 11 11 11 11 11 12 12 12 12 12 12 12 12 12 13 13 13 13 13 12 12 12 12 12 12 12 12 12 12 12
11 9 10 10 10 10 10 11 11 10 10 10 11 11 12 11 11 11 11 11 11 11 11 11 11 11 11 12 12 12 12 12 12 12 12 12 13 12 12 12 12 12 12 12 12 12 12 12 11
9 9 9 10 10 11 10 10 11 10 9 10 11 12 12 11 11 11 11 11 11 11 11 11 11 11 11 11 11 11 12 12 12 12 12 12 12 12 12 12 12 11 11 11 12 12 11 11 11
8 8 9 10 10 10 10 10 9 9 11 11 11 11 12 11 11 11 11 11 11 11 11 11 11 11 11 11 11 11 11 11 11 11 11 12 12 12 12 12 11 11 11 11 11 11 11 11 11
8 8 9 9 10 10 10 9 9 9 10 11 11 11 11 11 11 11 10 10 11 11 11 11 11 11 10 10 11 11 11 11 11 11 11 11 11 11 11 11 11 11 11 11 11 11 11 11 10
8 8 8 9 9 9 8 8 8 9 10 10 10 10 10 10 10 10 10 10 10 10 10 10 10 10 10 10 10 10 10 10 10 11 11 11 11 11 11 11 11 10 10 10 10 10 10 10 10
8 8 8 8 8 8 8 7 7 9 9 9 9 10 10 10 10 10 10 10 10 10 10 10 10 10 10 10 10 10 10 10 10 10 10 10 10 10 10 10 10 10 10 10 10 10 10 9 9
7 7 7 8 7 8 8 8 8 9 8 8 9 9 9 9 9 9 9 9 9 9 9 9 9 9 9 9 9 9 9 9 9 9 9 9 10 10 10 10 10 10 9 9 9 9 9 9 9
6 6 7 7 7 7 7 7 7 8 7 7 8 8 8 9 9 9 9 9 9 9 9 9 9 9 9 9 9 9 9 9 9 9 9 9 9 9 9 9 9 9 9 9 9 8 8 8 8
6 6 6 7 7 6 6 5 6 7 6 6 7 7 8 8 9 9 9 9 9 8 8 9 9 9 8 8 8 8 8 8 8 8 8 8 8 8 8 8 8 8 8 8 8 8 8 8 8
6 6 6 6 6 6 5 5 6 6 5 5 5 6 7 8 8 8 8 8 8 8 8 8 8 8 8 8 8 8 8 8 8 8 8 8 8 8 8 8 8 8 8 8 8 7 7 7 7
6 5 5 5 6 5 4 4 5 4 4 5 5 6 6 7 7 8 8 7 7 7 7 7 7 7 7 7 7 7 7 7 7 7 7 7 7 7 7 7 7 7 7 7 7 7 7 7 6
5 5 5 5 5 5 4 5 5 5 4 5 5 6 6 6 7 7 7 7 7 7 7 7 7 7 7 7 6 6 6 6 6 6 6 6 6 6 7 7 7 7 7 7 7 6 6 6 6
5 5 5 5 4 4 4 5 5 4 4 4 4 5 5 6 6 7 7 7 7 7 7 6 6 6 6 6 6 6 6 6 6 6 6 6 6 6 6 6 6 6 6 6 6 6 6 6 6
4 4 4 4 4 3 3 4 4 3 4 4 4 4 5 5 6 6 6 6 6 6 6 6 6 6 6 5 5 5 5 5 5 5 5 5 5 5 5 5 5 5 5 5 5 6 6 5 5
4 3 3 2 2 3 3 3 4 3 4 4 3 4 4 4 5 5 5 6 6 5 5 5 5 5 5 5 5 5 5 5 5 5 5 5 5 5 5 5 5 5 5 5 5 5 5 5 5
3 3 4 4 3 4 3 3 4 3 3 3 2 3 3 4 4 4 5 5 5 5 5 5 5 5 4 4 4 4 4 4 4 4 4 4 4 4 4 4 4 4 4 4 4 4 4 4 4
3 4 4 4 3 3 2 3 3 2 2 2 2 2 2 3 3 3 4 4 4 4 4 4 4 4 4 4 4 4 4 4 4 4 4 4 4 4 4 4 4 4 4 4 4 4 4 4 4
3 2 3 2 2 2 2 1 2 2 1 1 1 1 2 2 2 2 3 3 3 3 3 3 3 3 3 3 3 3 3 3 3 3 3 3 3 3 3 3 3 3 3 3 3 3 3 3 3
2 2 1 2 3 3 2 2 3 3 2 1 0 0 1 1 1 2 2 2 2 2 2 2 2 2 2 2 2 2 3 3 3 3 3 3 3 3 3 3 3 3 3 3 3 3 3 3 2
1 2 1 1 2 2 2 3 2 2 1 1 -0 0 1 1 1 1 1 1 1 1 2 2 2 2 2 1 1 2 2 2 2 2 2 2 2 2 2 2 2 2 2 2 2 2 2 2 2
1 1 1 2 1 0 1 3 2 0 -0 -0 -0 0 0 1 1 1 1 1 1 1 1 1 1 1 1 1 1 1 1 1 1 1 1 1 2 2 2 2 1 1 2 1 1 1 1 1 1
Wind_Speed
8 6 3 4 5 4 3 4 2 1 1 0 1 3 5 4 4 3 0 2 4 3 4 6 7 7 7 8 8 8 8 8 8 8 9 9 9 10 10 10 11 11 12 13 14 14 14 14 14
4 3 5 5 4 2 5 4 3 3 2 2 3 3 3 1 1 1 1 1 4 5 5 5 7 8 8 8 8 8 8 8 8 8 8 8 9 9 10 10 11 11 12 13 13 13 13 13 14
2 4 4 4 4 6 5 3 4 1 1 2 2 2 1 1 1 1 1 2 4 4 5 6 8 8 8 8 8 9 8 7 8 8 8 8 8 9 10 10 11 11 12 12 12 12 12 13 13
4 5 5 3 4 5 4 2 3 2 1 2 3 1 0 1 0 1 1 3 5 4 5 6 8 8 8 9 9 8 8 8 8 8 8 8 8 9 9 10 10 11 11 11 11 11 11 11 12
4 5 3 0 4 4 3 2 3 2 2 1 3 2 1 2 2 3 4 4 5 3 4 6 8 8 9 9 9 8 8 8 8 8 8 8 8 9 9 10 10 10 10 10 10 10 10 10 11
4 4 3 4 5 4 3 1 2 2 2 1 3 3 2 1 3 3 4 4 5 4 5 5 7 8 8 8 9 8 8 8 8 8 8 8 9 9 9 9 10 9 10 10 10 9 9 10 11
5 4 4 4 3 3 3 2 3 3 2 3 4 3 1 1 1 3 3 4 5 5 5 5 5 6 7 8 9 8 8 8 8 8 8 8 9 9 9 9 9 9 9 10 9 9 9 10 11
5 5 2 3 4 4 2 2 2 3 3 1 3 5 3 2 3 4 4 4 4 4 4 4 5 5 6 7 8 8 8 8 8 8 8 8 8 8 9 8 8 9 9 10 10 10 11 11 11
4 3 4 5 6 4 1 1 0 1 3 1 0 1 1 4 6 5 4 3 3 3 3 3 4 5 5 6 6 7 7 7 7 7 8 8 7 7 8 8 8 8 9 9 10 10 11 11 11
4 4 7 4 4 3 1 2 2 2 1 1 1 1 2 5 6 6 5 5 5 4 3 2 3 4 5 5 6 6 6 6 6 6 7 7 7 7 7 7 8 8 9 9 10 10 10 10 9
3 5 3 2 2 2 1 1 1 4 4 6 5 4 4 5 5 5 5 4 4 4 3 2 3 4 5 4 5 5 5 6 6 6 7 7 7 6 6 6 6 7 8 8 9 9 9 8 8
2 2 2 1 1 1 2 1 1 4 6 3 4 5 6 6 7 6 6 4 3 3 3 3 3 3 4 5 4 4 4 4 4 5 6 6 5 5 5 5 5 6 6 6 7 7 8 8 8
1 2 1 1 1 1 1 3 3 5 4 0 3 5 6 6 5 4 3 3 3 3 3 3 3 3 4 4 4 4 4 4 4 5 5 5 4 3 3 4 4 5 5 5 5 6 6 7 7
1 2 2 2 2 1 2 4 3 7 3 2 3 5 6 7 6 3 3 3 4 4 4 3 3 4 4 4 3 3 4 4 5 5 4 5 5 4 4 3 3 4 5 5 5 5 5 5 5
1 2 4 3 2 2 0 6 7 6 2 3 4 5 5 5 5 6 5 5 4 4 4 4 4 3 4 4 4 4 4 4 4 3 4 4 5 5 5 3 3 3 4 5 5 5 5 4 4
1 1 3 4 2 1 3 9 6 2 4 6 5 5 5 5 5 5 4 4 3 2 3 4 4 4 3 3 4 4 4 4 3 3 3 3 4 4 4 3 2 3 4 4 4 3 2 2 2
2 2 4 5 2 1 4 8 6 2 4 6 6 6 6 5 5 5 4 4 4 4 4 4 4 4 3 3 3 4 3 3 3 3 3 2 3 4 4 3 3 4 4 3 3 2 2 2 2
4 4 4 5 3 1 5 10 9 4 5 6 6 6 6 7 8 5 4 3 3 3 3 3 3 3 3 2 2 2 2 2 2 2 2 2 3 4 4 3 3 4 3 2 2 2 2 2 2
3 4 6 6 3 3 8 11 12 7 5 6 6 6 7 7 5 2 2 2 1 1 2 2 3 3 3 2 2 3 3 2 1 1 2 2 3 4 4 3 3 3 3 3 3 2 3 2 2
4 5 6 5 3 3 6 11 9 7 6 7 7 7 7 5 3 2 1 2 3 3 2 2 2 2 2 2 2 2 2 2 2 1 2 3 3 4 4 4 3 3 3 3 3 2 2 1 1
6 7 6 5 5 3 5 8 6 5 4 5 5 5 4 5 5 4 3 3 3 3 4 3 3 3 2 1 1 1 1 1 1 2 2 2 3 4 4 5 3 3 4 4 4 4 3 3 1
8 5 5 4 2 4 1 6 7 5 5 5 5 4 4 4 4 3 3 3 3 4 3 3 3 3 2 2 2 3 3 2 3 2 2 2 3 4 4 4 4 4 3 4 4 4 2 4 4
5 1 2 3 3 4 2 5 8 2 6 7 4 4 4 3 3 2 2 3 2 2 2 2 2 2 2 2 3 4 2 2 1 1 2 2 2 2 3 4 4 3 3 4 4 3 3 3 4
2 2 2 2 2 5 7 6 8 5 7 5 4 3 3 3 2 2 2 2 2 1 1 1 2 1 1 2 2 3 3 2 2 2 2 2 2 2 2 4 3 4 4 4 4 4 5 4 3
2 3 1 2 2 7 4 6 9 6 5 4 4 3 3 2 2 2 2 2 2 2 1 0 1 1 0 1 2 2 2 3 3 3 3 3 2 2 4 3 3 3 3 4 4 4 5 5 4
5 5 5 5 5 5 2 8 7 4 2 1 2 2 2 2 2 2 2 1 1 1 1 0 1 1 0 1 1 1 1 1 1 2 2 3 3 4 3 4 4 3 4 4 4 4 4 4 4
4 5 3 3 1 4 6 6 7 3 2 1 1 2 2 2 2 2 2 2 2 2 1 1 1 0 0 1 1 1 1 1 2 2 2 2 3 3 3 4 4 4 4 4 4 4 4 4 4
3 6 4 4 3 5 6 5 5 5 4 3 2 2 2 2 2 2 2 2 2 2 1 1 1 1 1 1 1 1 1 2 1 1 2 3 3 3 4 4 4 4 5 5 5 4 4 5 4
4 4 4 3 4 4 5 6 4 5 4 4 4 3 2 2 2 2 2 2 2 2 2 2 1 2 1 1 1 1 1 1 1 1 2 3 2 3 4 5 4 5 5 5 5 5 5 6 5
4 6 7 5 5 4 4 7 2 3 3 2 3 2 2 2 2 2 1 2 2 2 2 2 2 2 2 2 1 1 1 1 1 1 2 2 3 3 4 3 4 5 6 6 6 6 6 6 6
Wind_Direction
344 359 52 54 61 58 231 245 223 194 207 148 123 132 149 153 165 187 25 134 126 130 149 146 129 119 114 108 108 105 98 93 90 91 89 86 83 85 83 82 79 80 82 85 88 88 88 88 88
347 20 53 62 103 175 254 240 219 204 181 129 65 85 103 126 11 100 131 150 123 128 136 138 130 124 119 115 110 105 100 98 93 91 91 90 88 86 84 83 80 80 83 86 87 88 88 88 90
34 48 79 82 141 190 219 216 205 174 122 115 82 50 116 158 137 173 218 154 115 113 127 140 132 127 125 120 116 108 101 100 99 94 92 92 92 90 86 83 82 81 84 87 88 89 90 90 91
67 50 59 90 214 223 223 239 183 141 65 64 117 91 330 18 206 188 132 137 123 109 124 138 134 130 129 125 121 116 110 102 101 99 94 94 92 91 87 84 83 82 85 86 86 88 89 90 92
58 79 83 205 239 249 250 256 168 160 168 107 128 145 254 358 49 93 114 124 128 107 108 128 133 128 127 126 122 117 109 102 96 101 100 96 95 90 87 86 84 83 84 86 86 88 93 93 94
62 75 119 220 238 257 264 225 162 172 161 129 137 149 215 49 72 90 110 114 115 108 98 118 129 126 123 120 116 112 107 100 96 90 96 96 97 96 90 86 85 83 85 83 81 86 98 102 98
110 114 175 208 232 254 236 170 166 179 181 197 170 153 247 328 99 105 103 104 99 96 90 92 109 119 121 120 116 112 106 99 93 91 87 90 97 98 92 88 86 83 83 85 83 86 101 106 103
121 115 162 209 214 244 226 166 175 179 201 153 149 164 218 219 135 108 96 99 102 94 87 83 91 100 107 113 113 110 107 100 95 91 88 84 90 100 98 91 87 84 84 87 86 89 102 101 99
94 104 206 212 202 234 208 169 44 72 116 102 182 222 243 130 127 117 103 104 119 111 96 84 88 92 97 103 107 108 107 102 97 92 90 84 83 98 99 94 89 85 86 90 91 89 91 91 92
102 178 217 203 192 205 213 207 198 138 144 236 260 1 102 130 143 149 158 167 165 159 142 110 108 100 100 103 102 98 99 98 94 91 89 87 84 93 99 98 90 86 87 88 91 90 87 84 86
145 191 207 225 224 186 210 252 212 169 224 222 210 194 151 147 157 169 178 180 184 174 153 136 123 114 110 103 104 97 95 95 95 94 91 90 86 85 92 91 86 83 85 85 86 85 86 87 88
153 233 214 242 235 199 219 213 228 213 231 225 198 165 158 166 181 189 192 193 180 161 166 159 135 123 120 117 113 105 99 98 99 101 102 99 94 83 91 92 89 87 88 87 88 89 91 88 89
198 256 258 241 265 243 243 236 240 252 257 260 134 147 171 184 199 212 206 194 180 184 180 171 154 146 135 125 123 116 112 116 113 108 108 110 110 100 98 102 98 93 95 95 94 94 93 89 86
233 254 276 276 259 259 221 258 240 255 232 184 171 189 195 196 200 207 206 207 202 195 190 180 168 162 151 144 141 141 131 127 119 114 115 119 123 124 107 105 101 97 102 105 104 102 101 97 94
49 320 306 266 230 239 228 285 238 243 186 212 214 214 214 214 210 210 205 206 208 203 194 183 177 162 162 157 150 144 136 129 124 123 126 123 126 133 127 119 115 105 109 107 101 93 90 87 84
49 19 288 275 208 220 176 261 263 227 196 230 234 233 229 229 225 226 212 206 203 198 199 188 174 166 169 163 151 144 141 137 134 133 135 131 131 134 130 123 124 111 111 110 109 105 81 75 76
27 264 260 288 225 169 200 253 269 245 217 237 245 243 237 242 248 239 224 208 199 198 193 182 174 172 174 159 147 141 136 135 139 138 138 148 141 142 138 130 130 123 110 111 122 93 95 102 88
232 237 253 258 277 226 242 255 272 262 227 244 256 256 247 243 246 242 228 214 204 196 186 174 166 163 160 150 144 138 127 123 124 137 148 158 157 153 144 135 133 133 122 112 121 118 91 106 110
189 216 250 259 269 257 250 261 270 269 244 253 258 256 255 254 258 249 221 199 174 162 164 161 158 159 150 163 175 182 189 186 171 161 174 171 164 160 152 136 142 144 146 146 130 120 112 91 92
226 246 262 284 294 252 274 272 268 257 244 240 245 250 253 264 287 277 218 186 193 195 190 173 162 161 169 182 188 190 188 191 193 185 193 191 180 172 166 153 163 166 149 141 135 129 135 124 119
233 225 241 264 323 310 312 293 258 257 245 253 251 248 254 245 252 260 242 217 206 208 207 199 189 187 188 167 123 94 96 123 197 204 203 204 191 182 171 172 170 174 166 169 170 162 155 167 177
244 231 230 251 285 287 323 287 267 250 272 264 264 267 266 263 251 252 246 231 223 222 209 196 192 194 191 171 176 177 194 207 216 208 198 187 188 185 179 172 173 181 178 176 181 183 176 174 183
224 198 201 222 214 273 248 244 277 258 254 257 261 270 275 276 257 256 253 240 236 224 199 196 190 194 193 189 196 197 191 193 185 178 182 186 191 188 182 182 183 188 188 184 183 183 182 186 191
166 73 63 77 118 255 224 210 270 230 229 249 248 275 305 319 325 330 354 26 20 27 137 161 176 201 206 203 205 190 184 181 165 186 201 204 207 210 205 198 197 194 192 190 190 191 188 194 192
122 109 353 317 263 250 191 212 251 248 238 228 246 283 318 336 358 4 12 16 19 19 15 150 176 230 258 223 221 208 202 195 191 204 207 218 221 227 224 215 209 204 203 195 188 192 196 198 197
197 172 182 221 238 274 228 233 252 261 273 247 259 289 334 353 8 15 360 355 352 349 358 282 210 253 264 242 255 238 216 215 217 224 222 216 230 234 231 221 213 212 202 195 191 199 205 200 204
173 201 182 168 239 267 257 274 295 268 289 299 309 340 333 345 358 3 5 6 359 350 332 303 244 274 280 269 300 295 264 239 232 239 236 229 228 244 235 223 208 208 207 198 189 205 211 208 209
186 159 141 177 218 255 275 264 252 256 257 277 289 293 296 329 347 357 359 356 352 347 345 7 14 283 308 304 278 281 271 262 248 228 237 244 240 227 226 223 211 213 212 205 200 206 210 208 215
163 167 175 187 198 207 262 265 231 227 230 237 258 272 265 282 296 315 330 342 358 10 17 14 16 6 351 327 302 294 288 279 248 233 241 245 251 232 224 226 217 217 216 210 206 211 210 209 216
200 197 174 193 233 212 239 267 279 223 245 231 263 282 288 288 296 305 327 1 13 13 7 6 2 349 327 313 310 293 295 300 271 263 264 262 256 255 238 221 219 226 217 211 208 212 213 212 217
Height
1504 1505 1507 1509 1513 1524 1524 1519 1515 1515 1515 1514 1514 1515 1516 1518 1522 1526 1522 1520 1522 1524 1526 1528 1529 1531 1532 1533 1534 1535 1535 1536 1537 1537 1538 1538 1538 1538 1537 1537 1536 1535 1534 1534 1535 1536 1537 1538 1539
1504 1505 1508 1509 1519 1529 1525 1517 1515 1513 1513 1514 1514 1515 1516 1517 1518 1519 1519 1520 1522 1524 1526 1527 1529 1530 1532 1533 1534 1535 1536 1536 1537 1538 1538 1538 1538 1538 1538 1538 1537 1537 1537 1537 1537 1538 1539 1540 1540
1504 1506 1508 1512 1521 1524 1519 1514 1513 1512 1513 1513 1514 1515 1516 1517 1517 1518 1519 1520 1522 1524 1526 1527 1529 1530 1531 1533 1534 1535 1536 1536 1537 1538 1538 1539 1539 1539 1539 1539 1539 1538 1538 1539 1539 1539 1540 1541 1541
1504 1507 1509 1517 1519 1518 1514 1512 1512 1512 1513 1513 1514 1515 1516 1518 1518 1518 1519 1520 1522 1524 1526 1527 1529 1530 1531 1532 1533 1534 1535 1536 1537 1538 1538 1538 1539 1539 1540 1539 1540 1540 1540 1539 1540 1540 1541 1541 1542
1504 1506 1514 1520 1518 1514 1512 1511 1511 1512 1512 1513 1514 1515 1515 1517 1517 1517 1519 1520 1522 1523 1525 1527 1528 1530 1531 1532 1533 1534 1535 1536 1537 1537 1538 1538 1539 1539 1540 1540 1540 1540 1540 1540 1540 1540 1541 1542 1543
1505 1507 1519 1521 1516 1513 1511 1510 1511 1512 1512 1513 1513 1514 1515 1516 1516 1517 1519 1520 1522 1523 1525 1526 1528 1529 1530 1532 1533 1534 1535 1536 1536 1537 1538 1538 1539 1539 1540 1540 1540 1540 1540 1540 1539 1539 1539 1541 1543
1505 1511 1516 1516 1516 1513 1510 1509 1510 1511 1511 1512 1513 1514 1514 1515 1516 1517 1518 1520 1521 1523 1524 1526 1527 1529 1530 1531 1532 1534 1534 1535 1536 1537 1537 1538 1539 1539 1540 1540 1540 1541 1541 1540 1538 1536 1536 1540 1542
1503 1510 1515 1516 1515 1512 1509 1508 1509 1510 1510 1512 1512 1513 1512 1514 1515 1516 1518 1519 1521 1522 1524 1525 1527 1528 1529 1530 1532 1533 1534 1534 1535 1536 1537 1537 1538 1539 1539 1540 1540 1540 1540 1540 1539 1536 1537 1540 1542
1504 1513 1515 1513 1512 1509 1507 1508 1508 1509 1509 1510 1510 1511 1512 1512 1513 1515 1516 1518 1519 1521 1523 1524 1526 1527 1528 1530 1531 1532 1533 1534 1534 1535 1536 1537 1537 1538 1539 1539 1540 1540 1540 1540 1540 1539 1540 1542 1543
1504 1512 1509 1507 1507 1507 1506 1507 1507 1508 1508 1508 1509 1509 1510 1511 1511 1513 1514 1515 1517 1519 1521 1522 1524 1525 1527 1529 1530 1531 1532 1533 1533 1534 1535 1536 1536 1537 1538 1539 1539 1540 1540 1540 1541 1541 1542 1543 1544
1503 1507 1506 1505 1505 1505 1506 1506 1506 1506 1507 1506 1506 1507 1507 1508 1509 1511 1512 1514 1515 1517 1519 1521 1522 1524 1525 1527 1528 1530 1530 1531 1532 1533 1534 1535 1535 1536 1537 1538 1538 1539 1540 1540 1540 1541 1542 1543 1544
1504 1504 1504 1504 1505 1505 1505 1505 1505 1504 1504 1504 1505 1505 1505 1506 1507 1509 1510 1512 1514 1515 1517 1519 1520 1522 1524 1525 1527 1528 1529 1530 1531 1532 1533 1534 1534 1535 1535 1536 1537 1538 1539 1539 1540 1541 1541 1542 1543
1504 1504 1504 1504 1504 1504 1504 1504 1504 1502 1502 1502 1503 1503 1503 1504 1505 1507 1509 1510 1512 1513 1515 1517 1518 1520 1522 1523 1525 1526 1527 1528 1529 1530 1531 1532 1533 1533 1533 1534 1536 1536 1537 1538 1539 1540 1540 1541 1542
1503 1503 1503 1503 1503 1503 1503 1502 1503 1498 1500 1500 1500 1500 1501 1502 1503 1504 1506 1507 1509 1510 1512 1514 1516 1518 1519 1521 1522 1524 1525 1526 1527 1528 1529 1530 1531 1532 1532 1533 1534 1535 1536 1537 1538 1539 1539 1540 1541
1503 1504 1503 1501 1501 1502 1503 1502 1499 1496 1498 1497 1497 1498 1498 1499 1500 1501 1502 1504 1506 1508 1510 1511 1513 1515 1517 1518 1520 1521 1523 1524 1525 1526 1527 1528 1529 1530 1530 1531 1532 1533 1534 1535 1536 1537 1538 1539 1540
1503 1505 1506 1501 1501 1501 1505 1501 1495 1495 1495 1494 1494 1495 1495 1496 1498 1499 1500 1502 1503 1505 1507 1508 1510 1512 1514 1516 1517 1519 1520 1521 1522 1523 1525 1526 1527 1528 1529 1529 1530 1531 1532 1533 1534 1535 1536 1537 1538
1508 1509 1506 1502 1500 1500 1502 1499 1493 1493 1493 1492 1491 1492 1492 1493 1494 1496 1497 1499 1500 1502 1504 1505 1507 1509 1511 1513 1514 1516 1517 1518 1520 1521 1522 1523 1524 1525 1526 1527 1527 1528 1529 1531 1532 1533 1534 1535 1536
1509 1509 1506 1504 1500 1501 1501 1497 1492 1491 1491 1490 1489 1489 1489 1489 1490 1492 1494 1496 1498 1499 1501 1503 1504 1506 1507 1509 1511 1513 1514 1515 1517 1518 1519 1520 1521 1522 1524 1525 1525 1526 1527 1528 1529 1531 1532 1533 1534
1503 1506 1506 1503 1500 1501 1499 1495 1490 1488 1488 1487 1486 1486 1486 1486 1488 1489 1491 1492 1494 1496 1497 1499 1500 1502 1504 1505 1507 1508 1510 1512 1513 1515 1516 1517 1518 1519 1520 1521 1523 1523 1524 1525 1527 1528 1529 1530 1531
1503 1505 1505 1502 1500 1500 1499 1494 1488 1485 1485 1483 1483 1482 1482 1483 1484 1485 1486 1488 1490 1491 1493 1495 1497 1498 1500 1502 1503 1505 1506 1508 1509 1511 1512 1513 1515 1516 1517 1518 1519 1520 1521 1522 1524 1525 1526 1527 1528
1502 1504 1503 1503 1501 1499 1499 1491 1486 1481 1481 1480 1479 1479 1479 1479 1480 1481 1482 1483 1485 1487 1489 1491 1493 1494 1496 1498 1500 1501 1502 1504 1505 1506 1507 1509 1511 1512 1513 1514 1516 1517 1518 1519 1520 1522 1523 1523 1525
1500 1499 1500 1502 1504 1505 1503 1498 1483 1481 1479 1477 1476 1475 1475 1476 1476 1477 1478 1480 1481 1483 1486 1487 1489 1491 1492 1494 1495 1497 1497 1498 1500 1501 1503 1505 1507 1508 1509 1510 1511 1513 1513 1514 1516 1518 1519 1520 1521
1498 1498 1500 1502 1504 1507 1504 1503 1485 1481 1478 1474 1473 1473 1473 1472 1473 1474 1475 1476 1478 1480 1482 1483 1485 1487 1489 1490 1492 1493 1494 1495 1497 1498 1499 1500 1502 1504 1505 1506 1507 1508 1509 1510 1512 1513 1515 1516 1517
1497 1499 1502 1506 1507 1504 1499 1502 1486 1481 1473 1471 1471 1471 1471 1471 1471 1472 1473 1474 1475 1476 1478 1479 1481 1483 1484 1486 1487 1489 1490 1491 1492 1493 1494 1496 1497 1499 1500 1502 1503 1504 1505 1506 1507 1509 1510 1512 1513
1497 1501 1504 1503 1506 1498 1496 1496 1482 1472 1470 1469 1470 1470 1470 1469 1469 1469 1470 1471 1472 1473 1475 1476 1477 1479 1480 1482 1484 1485 1486 1488 1488 1490 1491 1492 1493 1494 1495 1497 1498 1499 1501 1502 1503 1505 1506 1507 1509
1496 1497 1501 1503 1504 1498 1496 1491 1477 1470 1469 1468 1469 1469 1469 1469 1468 1468 1469 1469 1470 1471 1472 1473 1474 1475 1477 1478 1480 1481 1483 1484 1485 1486 1487 1488 1489 1490 1491 1492 1493 1495 1496 1497 1499 1500 1501 1503 1504
1494 1497 1497 1504 1506 1505 1494 1487 1477 1469 1468 1468 1468 1468 1468 1468 1467 1467 1468 1468 1468 1469 1469 1470 1471 1472 1473 1475 1476 1477 1479 1480 1481 1482 1483 1484 1485 1486 1487 1488 1488 1490 1491 1492 1494 1495 1496 1498 1499
1492 1494 1500 1500 1500 1497 1490 1486 1476 1468 1467 1467 1467 1466 1466 1467 1466 1466 1467 1467 1466 1467 1468 1468 1469 1469 1470 1471 1472 1473 1475 1476 1477 1478 1479 1479 1480 1481 1482 1483 1483 1485 1486 1487 1488 1490 1491 1492 1494
1493 1495 1495 1497 1497 1496 1493 1479 1469 1467 1465 1466 1466 1465 1465 1465 1465 1465 1465 1465 1465 1465 1465 1465 1465 1466 1467 1467 1468 1470 1471 1472 1472 1473 1474 1474 1475 1476 1477 1478 1478 1480 1481 1482 1483 1484 1486 1487 1488
1489 1490 1493 1494 1494 1498 1492 1478 1465 1465 1464 1464 1465 1465 1465 1465 1464 1464 1464 1463 1463 1462 1462 1462 1462 1463 1463 1464 1465 1466 1466 1467 1467 1468 1469 1469 1470 1471 1472 1473 1473 1474 1475 1476 1477 1478 1480 1481 1482